#timestamp,LO_Frequency,Hit,StdDev 
1504893615.1,286047002.4,N,0.9
1504893635.9,286047002.0,N,0.9
1504893655.7,286047002.8,Y,0.0
1504893675.6,286047000.8,P,0.5
1504893695.4,286047000.5,N,0.5
1504893715.2,286047000.3,N,0.6
1504893735.1,286047000.7,N,0.5
1504893736.0,286047000.7,N,0.5
1504893755.8,286047000.7,N,0.4
1504893775.7,286046998.1,Y,0.0
1504893795.5,286046998.9,P,0.9
1504893815.3,286046999.4,N,0.8
1504893835.2,286046997.3,P,1.2
1504893855.0,286046997.3,N,1.3
1504893855.9,286046997.3,N,1.3
1504893875.8,286046997.4,N,1.3
1504893895.6,286046997.5,N,1.2
1504893915.4,286046995.3,Y,0.0
1504893935.3,286046999.3,P,0.5
1504893955.1,286046999.2,N,0.5
1504893975.9,286046996.9,P,1.0
1504893995.7,286046994.9,Y,0.0
1504894015.5,286046996.8,P,0.8
1504894035.4,286046996.8,P,0.8
1504894055.2,286046997.3,P,0.7
1504894075.1,286046997.3,Y,0.0
1504894076.0,286046997.3,P,0.0
1504894095.8,286046998.3,P,0.5
1504894115.6,286046998.7,N,0.6
1504894135.5,286046998.4,N,0.6
1504894155.3,286046999.3,N,0.7
1504894175.2,286046998.6,N,0.7
1504894195.9,286046998.5,N,0.6
1504894215.7,286046998.2,N,0.6
1504894235.6,286046999.0,N,0.6
1504894255.4,286046998.8,N,0.6
1504894275.3,286046996.5,Y,0.0
1504894295.1,286047001.0,P,1.3
1504894296.0,286047001.0,N,1.2
1504894315.8,286047001.2,N,1.2
1504894335.7,286046998.9,N,1.2
1504894355.5,286046999.6,N,1.1
1504894375.3,286046998.9,N,1.1
1504894395.2,286046999.0,N,1.1
1504894415.0,286046998.6,N,1.1
1504894415.9,286046998.6,N,1.1
1504894435.8,286046996.5,Y,0.0
1504894455.6,286046997.1,P,1.2
1504894475.4,286046997.7,N,1.0
1504894495.3,286046999.5,N,1.1
1504894515.1,286046996.6,Y,0.0
1504894535.9,286046999.0,P,0.3
1504894555.7,286046998.9,P,0.2
1504894575.5,286046998.3,P,0.3
1504894595.4,286046999.4,N,0.4
1504894615.2,286046999.4,N,0.4
1504894635.1,286046996.5,Y,0.0
1504894636.0,286046996.5,P,1.2
1504894655.8,286046998.3,N,1.0
1504894675.6,286046999.0,N,1.0
1504894695.5,286046999.0,N,1.0
1504894715.3,286046998.4,N,0.9
1504894735.1,286046997.2,Y,0.0
1504894755.9,286047001.0,P,1.3
1504894775.7,286047001.2,N,1.3
1504894795.6,286047000.9,N,1.2
1504894815.4,286047000.7,N,1.1
1504894835.2,286047000.4,N,1.0
1504894855.1,286047000.3,N,0.9
1504894856.0,286047000.3,N,0.8
1504894875.8,286046998.6,N,1.0
1504894895.7,286046998.9,N,1.0
1504894915.5,286046997.1,N,1.3
1504894935.3,286046997.0,N,1.4
1504894955.2,286046999.3,N,1.4
1504894975.0,286046997.0,N,1.5
1504894975.9,286046997.0,N,1.6
1504894995.8,286046997.7,N,1.6
1504895015.6,286046997.4,N,1.6
1504895035.4,286046997.8,N,1.5
1504895055.3,286046996.8,N,1.6
1504895075.1,286046999.6,N,1.5
1504895095.8,286046997.2,N,1.5
1504895115.7,286046996.9,N,1.6
1504895135.5,286046996.5,N,1.6
1504895155.4,286046998.6,N,1.6
1504895175.2,286046998.7,N,1.5
1504895195.0,286046999.3,N,1.5
1504895195.9,286046999.3,N,1.5
1504895215.8,286046999.1,N,1.5
1504895235.6,286046996.5,N,1.5
1504895255.5,286046999.5,N,1.5
1504895275.3,286046997.1,N,1.5
1504895295.1,286046997.8,N,1.4
1504895315.9,286046995.1,Y,0.0
1504895335.7,286046996.9,P,0.8
1504895355.6,286046997.3,P,0.7
1504895375.4,286046999.1,N,0.9
1504895395.2,286046997.7,N,0.8
1504895415.1,286046999.2,N,0.9
1504895416.0,286046999.2,N,0.9
1504895435.8,286046999.2,N,0.9
1504895455.6,286046998.8,N,0.9
1504895475.5,286046998.6,N,0.8
1504895495.3,286046999.3,N,0.8
1504895515.2,286046998.7,N,0.8
1504895535.9,286046999.0,N,0.8
1504895555.7,286046999.2,N,0.7
1504895575.6,286046999.5,N,0.8
1504895595.4,286046999.1,N,0.7
1504895615.3,286046999.5,N,0.7
1504895635.1,286046998.9,N,0.7
1504895636.0,286046998.9,N,0.7
1504895655.8,286046999.6,N,0.7
1504895675.7,286046999.1,N,0.7
1504895695.5,286046997.1,Y,0.0
1504895715.4,286046999.6,P,0.4
1504895735.2,286046999.1,N,0.3
1504895755.0,286046996.6,P,1.1
1504895755.9,286046996.6,N,1.3
1504895775.8,286046998.3,N,1.2
1504895795.6,286047000.9,N,1.4
1504895815.4,286047000.0,N,1.4
1504895835.3,286047000.8,N,1.5
1504895855.1,286047000.9,N,1.5
1504895875.9,286047000.4,N,1.5
1504895895.7,286047000.1,N,1.5
1504895915.5,286047000.7,N,1.4
1504895935.4,286047000.8,N,1.4
1504895955.2,286047001.0,N,1.4
1504895975.0,286047000.9,N,1.4
1504895976.0,286047000.9,N,1.4
1504895995.8,286047000.3,N,1.4
1504896015.6,286047001.0,N,1.4
1504896035.5,286047000.6,N,1.3
1504896055.3,286046999.8,N,1.3
1504896075.1,286047000.3,N,1.3
1504896095.9,286046999.7,N,1.3
1504896115.7,286047002.4,N,1.3
1504896135.6,286047000.1,N,1.3
1504896155.4,286047002.7,N,1.4
1504896175.2,286047002.6,N,1.4
1504896195.1,286047001.9,N,1.4
1504896196.0,286047001.9,N,1.4
1504896215.8,286047002.2,N,1.5
1504896235.6,286047002.2,N,1.5
1504896255.5,286047002.7,N,1.5
1504896275.3,286047002.3,N,1.5
1504896295.2,286047002.2,N,1.3
1504896315.9,286047003.9,N,1.2
1504896335.7,286047004.3,Y,0.0
1504896355.6,286047002.2,P,0.5
1504896375.4,286047001.8,P,0.4
1504896395.3,286047001.6,P,0.4
1504896415.1,286047001.4,Y,0.0
1504896435.8,286047000.4,P,0.6
1504896455.7,286047000.8,N,0.5
1504896475.5,286047001.2,N,0.5
1504896495.4,286047000.9,N,0.4
1504896515.2,286047000.9,N,0.4
1504896535.0,286047000.2,N,0.5
1504896535.9,286047000.2,N,0.5
1504896555.8,286046999.7,N,0.6
1504896575.6,286047002.5,Y,0.0
1504896595.5,286047002.8,P,1.1
1504896615.3,286047002.5,N,0.9
1504896635.1,286047002.2,N,0.8
1504896655.9,286047001.7,N,0.7
1504896675.7,286047002.5,Y,0.0
1504896695.6,286047001.1,P,0.4
1504896715.4,286046999.6,N,1.0
1504896735.2,286046999.3,N,1.1
1504896755.1,286046998.1,N,1.4
1504896756.0,286046998.1,N,1.4
1504896775.8,286046998.3,N,1.4
1504896795.6,286046998.2,N,1.4
1504896815.5,286047001.1,N,1.4
1504896835.3,286047001.2,N,1.4
1504896855.2,286047000.0,N,1.4
1504896875.9,286046998.2,N,1.4
1504896895.7,286046998.2,N,1.4
1504896915.6,286047000.5,N,1.4
1504896935.4,286047002.7,N,1.5
1504896955.3,286047001.5,N,1.5
1504896975.1,286047002.1,N,1.6
1504896976.0,286047002.1,N,1.6
1504896995.8,286047002.5,N,1.7
1504897015.7,286047000.2,N,1.6
1504897035.5,286047001.2,N,1.6
1504897055.3,286047000.7,N,1.6
1504897075.2,286047000.7,N,1.5
1504897095.0,286047000.9,N,1.5
1504897095.9,286047000.9,N,1.5
1504897115.8,286047002.8,N,1.5
1504897135.6,286047002.5,N,1.5
1504897155.4,286047000.2,N,1.5
1504897175.3,286047000.0,N,1.5
1504897195.1,286047002.7,N,1.5
